Time,TemperatureF,DewpointF,PressureIn,WindDirection,WindDirectionDegrees,WindSpeedMPH,WindSpeedGustMPH,Humidity,HourlyPrecipIn,Conditions,Clouds,dailyrainin,SoftwareType,DateUTC
2013-07-03 00:00:00,74.8,73.6,30.10,ENE,70,0.0,1.0,96,0.00,,---,0.78,VWS V14.01,2013-07-03 04:00:00,
2013-07-03 00:01:00,74.8,73.6,30.10,ENE,70,0.0,0.0,96,0.00,,---,0.00,VWS V14.01,2013-07-03 04:01:00,
2013-07-03 00:03:00,74.8,73.6,30.10,ENE,70,0.0,0.0,96,0.00,,---,0.00,VWS V14.01,2013-07-03 04:03:00,
2013-07-03 00:04:00,74.8,73.6,30.10,ENE,70,0.0,0.0,96,0.00,,---,0.00,VWS V14.01,2013-07-03 04:04:00,
2013-07-03 00:09:00,74.7,73.5,30.10,ENE,70,0.0,0.0,96,0.00,,---,0.00,VWS V14.01,2013-07-03 04:09:00,
2013-07-03 00:14:00,74.6,73.4,30.10,ENE,70,0.0,0.0,96,0.00,,---,0.00,VWS V14.01,2013-07-03 04:14:00,
2013-07-03 00:19:00,74.5,73.3,30.09,ENE,70,0.0,0.0,96,0.00,,---,0.00,VWS V14.01,2013-07-03 04:19:00,
2013-07-03 00:24:00,74.4,73.5,30.10,ENE,70,0.0,0.0,97,0.00,,---,0.00,VWS V14.01,2013-07-03 04:24:00,
2013-07-03 00:29:00,74.5,73.6,30.09,ENE,70,0.0,0.0,97,0.00,,---,0.00,VWS V14.01,2013-07-03 04:29:00,
2013-07-03 00:31:00,74.5,73.6,30.09,ENE,70,0.0,1.0,97,0.00,,---,0.00,VWS V14.01,2013-07-03 04:31:00,
2013-07-03 00:33:00,74.5,73.6,30.09,ENE,70,0.0,1.0,97,0.00,,---,0.00,VWS V14.01,2013-07-03 04:33:00,
2013-07-03 00:38:00,74.5,73.6,30.09,ENE,63,0.0,1.0,97,0.00,,---,0.00,VWS V14.01,2013-07-03 04:38:00,
2013-07-03 00:43:00,74.5,73.6,30.09,ENE,63,0.0,1.0,97,0.00,,---,0.00,VWS V14.01,2013-07-03 04:43:00,
2013-07-03 00:45:00,74.5,73.6,30.09,ENE,63,0.0,1.0,97,0.00,,---,0.00,VWS V14.01,2013-07-03 04:45:00,
2013-07-03 00:46:00,74.5,73.6,30.09,ENE,63,0.0,1.0,97,0.00,,---,0.00,VWS V14.01,2013-07-03 04:46:00,
2013-07-03 00:51:00,74.5,73.6,30.09,ENE,63,0.0,1.0,97,0.00,,---,0.00,VWS V14.01,2013-07-03 04:51:00,
2013-07-03 00:56:00,74.5,73.6,30.09,ENE,66,0.0,1.0,97,0.00,,---,0.00,VWS V14.01,2013-07-03 04:56:00,
2013-07-03 01:01:00,74.4,73.5,30.08,ENE,67,0.0,0.0,97,0.00,,---,0.00,VWS V14.01,2013-07-03 05:01:00,
2013-07-03 01:06:00,74.2,73.3,30.08,ENE,66,0.0,0.0,97,0.00,,---,0.00,VWS V14.01,2013-07-03 05:06:00,
2013-07-03 01:09:00,74.2,73.3,30.08,ENE,66,0.0,0.0,97,0.00,,---,0.00,VWS V14.01,2013-07-03 05:09:00,
2013-07-03 01:15:00,74.0,73.1,30.08,ENE,66,0.0,0.0,97,0.00,,---,0.00,VWS V14.01,2013-07-03 05:15:00,
2013-07-03 01:19:00,74.1,73.2,30.08,ENE,67,0.0,0.0,97,0.00,,---,0.00,VWS V14.01,2013-07-03 05:19:00,
2013-07-03 01:24:00,74.1,73.2,30.08,ENE,66,0.0,0.0,97,0.00,,---,0.00,VWS V14.01,2013-07-03 05:24:00,
2013-07-03 01:29:00,74.0,73.1,30.08,ENE,66,0.0,0.0,97,0.00,,---,0.00,VWS V14.01,2013-07-03 05:29:00,
2013-07-03 01:34:00,73.9,73.0,30.09,ENE,66,0.0,0.0,97,0.00,,---,0.00,VWS V14.01,2013-07-03 05:34:00,
2013-07-03 01:40:00,74.0,73.1,30.09,ENE,66,0.0,0.0,97,0.00,,---,0.00,VWS V14.01,2013-07-03 05:40:00,
2013-07-03 01:45:00,74.0,73.1,30.09,ENE,66,0.0,0.0,97,0.00,,---,0.00,VWS V14.01,2013-07-03 05:45:00,
2013-07-03 01:50:00,74.1,73.2,30.08,ENE,67,0.0,1.0,97,0.00,,---,0.00,VWS V14.01,2013-07-03 05:50:00,
2013-07-03 01:55:00,74.2,73.3,30.08,ENE,66,0.0,1.0,97,0.00,,---,0.00,VWS V14.01,2013-07-03 05:55:00,
2013-07-03 01:58:00,74.2,73.3,30.08,ENE,66,0.0,1.0,97,0.00,,---,0.00,VWS V14.01,2013-07-03 05:58:00,
2013-07-03 01:59:00,74.1,73.2,30.08,ENE,66,0.0,1.0,97,0.00,,---,0.00,VWS V14.01,2013-07-03 05:59:00,
2013-07-03 02:03:00,74.1,73.2,30.08,ENE,66,0.0,0.0,97,0.00,,---,0.00,VWS V14.01,2013-07-03 06:03:00,
2013-07-03 02:08:00,74.2,73.6,30.08,ENE,67,0.0,0.0,98,0.00,,---,0.00,VWS V14.01,2013-07-03 06:08:00,
2013-07-03 02:13:00,74.1,73.2,30.08,ENE,67,0.0,0.0,97,0.00,,---,0.00,VWS V14.01,2013-07-03 06:13:00,
2013-07-03 02:18:00,74.0,73.1,30.08,ENE,67,0.0,0.0,97,0.00,,---,0.00,VWS V14.01,2013-07-03 06:18:00,
2013-07-03 02:19:00,74.0,73.1,30.08,ENE,67,0.0,0.0,97,0.00,,---,0.00,VWS V14.01,2013-07-03 06:19:00,
2013-07-03 02:24:00,73.9,73.0,30.08,ENE,66,0.0,0.0,97,0.00,,---,0.00,VWS V14.01,2013-07-03 06:24:00,
2013-07-03 02:25:00,73.9,73.0,30.08,ENE,67,0.0,0.0,97,0.00,,---,0.00,VWS V14.01,2013-07-03 06:25:00,
2013-07-03 02:28:00,73.9,73.0,30.08,ENE,66,0.0,0.0,97,0.00,,---,0.00,VWS V14.01,2013-07-03 06:28:00,
2013-07-03 02:32:00,74.0,73.4,30.08,ENE,66,0.0,0.0,98,0.00,,---,0.00,VWS V14.01,2013-07-03 06:32:00,
2013-07-03 02:37:00,73.9,73.0,30.08,ENE,66,0.0,0.0,97,0.00,,---,0.00,VWS V14.01,2013-07-03 06:37:00,
2013-07-03 02:42:00,73.8,72.9,30.08,ENE,67,0.0,0.0,97,0.00,,---,0.00,VWS V14.01,2013-07-03 06:42:00,
2013-07-03 02:44:00,73.7,72.8,30.08,ENE,67,0.0,0.0,97,0.00,,---,0.00,VWS V14.01,2013-07-03 06:44:00,
2013-07-03 02:49:00,73.7,73.1,30.08,ENE,67,0.0,0.0,98,0.00,,---,0.00,VWS V14.01,2013-07-03 06:49:00,
2013-07-03 02:54:00,73.8,73.2,30.07,ENE,66,0.0,0.0,98,0.00,,---,0.00,VWS V14.01,2013-07-03 06:54:00,
2013-07-03 02:55:00,73.8,73.2,30.07,ENE,67,0.0,0.0,98,0.00,,---,0.00,VWS V14.01,2013-07-03 06:55:00,
2013-07-03 03:00:00,73.7,73.1,30.07,ENE,67,0.0,0.0,98,0.00,,---,0.00,VWS V14.01,2013-07-03 07:00:00,
2013-07-03 03:06:00,73.6,72.7,30.07,ENE,67,0.0,0.0,97,0.00,,---,0.00,VWS V14.01,2013-07-03 07:06:00,
2013-07-03 03:11:00,73.4,72.5,30.07,ENE,67,0.0,0.0,97,0.00,,---,0.00,VWS V14.01,2013-07-03 07:11:00,
2013-07-03 03:16:00,73.4,72.8,30.07,ENE,67,0.0,0.0,98,0.00,,---,0.00,VWS V14.01,2013-07-03 07:16:00,
2013-07-03 03:21:00,73.5,72.9,30.07,ENE,67,0.0,0.0,98,0.00,,---,0.00,VWS V14.01,2013-07-03 07:21:00,
2013-07-03 03:26:00,73.5,72.9,30.07,ENE,67,0.0,0.0,98,0.00,,---,0.00,VWS V14.01,2013-07-03 07:26:00,
2013-07-03 03:31:00,73.5,72.9,30.07,ENE,67,0.0,0.0,98,0.00,,---,0.00,VWS V14.01,2013-07-03 07:31:00,
2013-07-03 03:37:00,73.5,72.9,30.07,ENE,67,0.0,0.0,98,0.00,,---,0.00,VWS V14.01,2013-07-03 07:37:00,
2013-07-03 03:38:00,73.5,72.9,30.07,ENE,67,0.0,0.0,98,0.00,,---,0.00,VWS V14.01,2013-07-03 07:38:00,
2013-07-03 03:44:00,73.4,72.8,30.07,ENE,66,0.0,0.0,98,0.00,,---,0.00,VWS V14.01,2013-07-03 07:44:00,
2013-07-03 03:49:00,73.5,72.9,30.07,ENE,67,0.0,0.0,98,0.00,,---,0.00,VWS V14.01,2013-07-03 07:49:00,
2013-07-03 03:50:00,73.5,72.9,30.07,ENE,66,0.0,0.0,98,0.00,,---,0.00,VWS V14.01,2013-07-03 07:50:00,
2013-07-03 03:55:00,73.4,72.8,30.07,ENE,67,0.0,0.0,98,0.00,,---,0.00,VWS V14.01,2013-07-03 07:55:00,
2013-07-03 04:01:00,73.5,72.9,30.07,ENE,66,0.0,0.0,98,0.00,,---,0.00,VWS V14.01,2013-07-03 08:01:00,
2013-07-03 04:06:00,73.5,72.9,30.07,ENE,67,0.0,0.0,98,0.00,,---,0.00,VWS V14.01,2013-07-03 08:06:00,
2013-07-03 04:10:00,73.5,72.9,30.07,ENE,66,0.0,0.0,98,0.00,,---,0.00,VWS V14.01,2013-07-03 08:10:00,
2013-07-03 04:14:00,73.7,73.1,30.07,ENE,66,0.0,0.0,98,0.00,,---,0.00,VWS V14.01,2013-07-03 08:14:00,
2013-07-03 04:19:00,73.9,73.3,30.07,ENE,66,0.0,0.0,98,0.00,,---,0.00,VWS V14.01,2013-07-03 08:19:00,
2013-07-03 04:24:00,73.9,73.3,30.07,ENE,67,0.0,0.0,98,0.00,,---,0.00,VWS V14.01,2013-07-03 08:24:00,
2013-07-03 04:29:00,74.0,73.4,30.07,ENE,66,0.0,0.0,98,0.00,,---,0.00,VWS V14.01,2013-07-03 08:29:00,
2013-07-03 04:34:00,74.1,73.5,30.07,NNE,31,0.0,1.0,98,0.00,,---,0.00,VWS V14.01,2013-07-03 08:34:00,
2013-07-03 04:39:00,74.1,73.5,30.07,NNE,30,0.0,1.0,98,0.00,,---,0.00,VWS V14.01,2013-07-03 08:39:00,
2013-07-03 04:40:00,74.1,73.5,30.07,NNE,30,0.0,1.0,98,0.00,,---,0.00,VWS V14.01,2013-07-03 08:40:00,
2013-07-03 04:45:00,74.1,73.5,30.07,NNE,30,0.0,1.0,98,0.00,,---,0.00,VWS V14.01,2013-07-03 08:45:00,
2013-07-03 04:52:00,73.9,73.3,30.07,NNE,30,0.0,1.0,98,0.00,,---,0.00,VWS V14.01,2013-07-03 08:52:00,
2013-07-03 04:54:00,73.8,73.2,30.07,NNE,30,0.0,1.0,98,0.00,,---,0.00,VWS V14.01,2013-07-03 08:54:00,
2013-07-03 04:56:00,73.8,73.2,30.07,NNE,30,0.0,1.0,98,0.00,,---,0.00,VWS V14.01,2013-07-03 08:56:00,
2013-07-03 05:01:00,73.7,73.1,30.07,NNE,30,0.0,0.0,98,0.00,,---,0.00,VWS V14.01,2013-07-03 09:01:00,
2013-07-03 05:06:00,73.5,72.9,30.07,NNE,30,0.0,0.0,98,0.00,,---,0.00,VWS V14.01,2013-07-03 09:06:00,
2013-07-03 05:11:00,73.4,72.8,30.08,NNE,32,0.0,0.0,98,0.00,,---,0.00,VWS V14.01,2013-07-03 09:11:00,
2013-07-03 05:16:00,73.5,72.9,30.08,NNE,30,0.0,0.0,98,0.00,,---,0.00,VWS V14.01,2013-07-03 09:16:00,
2013-07-03 05:21:00,73.9,73.6,30.08,NNE,32,0.0,0.0,99,0.00,,---,0.00,VWS V14.01,2013-07-03 09:21:00,
2013-07-03 05:27:00,74.0,73.7,30.08,NNE,32,0.0,0.0,99,0.00,,---,0.00,VWS V14.01,2013-07-03 09:27:00,
2013-07-03 05:32:00,74.2,73.6,30.08,NNE,32,0.0,0.0,98,0.00,,---,0.00,VWS V14.01,2013-07-03 09:32:00,
2013-07-03 05:37:00,74.3,73.7,30.08,NNE,32,0.0,0.0,98,0.00,,---,0.00,VWS V14.01,2013-07-03 09:37:00,
2013-07-03 05:41:00,74.4,73.8,30.08,NNE,30,0.0,0.0,98,0.00,,---,0.00,VWS V14.01,2013-07-03 09:41:00,
2013-07-03 05:46:00,74.4,73.8,30.08,NNE,30,0.0,0.0,98,0.00,,---,0.00,VWS V14.01,2013-07-03 09:46:00,
2013-07-03 05:50:00,74.4,73.8,30.08,NNE,30,0.0,0.0,98,0.00,,---,0.00,VWS V14.01,2013-07-03 09:50:00,
2013-07-03 05:54:00,74.3,73.7,30.08,WNW,300,0.0,0.0,98,0.00,,---,0.00,VWS V14.01,2013-07-03 09:54:00,
2013-07-03 05:59:00,74.3,73.7,30.08,WNW,301,0.0,1.0,98,0.00,,---,0.00,VWS V14.01,2013-07-03 09:59:00,
2013-07-03 06:04:00,74.1,73.5,30.08,WNW,301,0.0,0.0,98,0.00,,---,0.00,VWS V14.01,2013-07-03 10:04:00,
2013-07-03 06:05:00,74.1,73.5,30.08,WNW,301,0.0,0.0,98,0.00,,---,0.00,VWS V14.01,2013-07-03 10:05:00,
2013-07-03 06:06:00,74.1,73.5,30.08,WNW,301,0.0,0.0,98,0.00,,---,0.00,VWS V14.01,2013-07-03 10:06:00,
2013-07-03 06:11:00,73.8,73.2,30.09,WNW,301,0.0,0.0,98,0.00,,---,0.00,VWS V14.01,2013-07-03 10:11:00,
2013-07-03 06:16:00,73.7,73.1,30.09,WNW,300,0.0,0.0,98,0.00,,---,0.00,VWS V14.01,2013-07-03 10:16:00,
2013-07-03 06:21:00,73.5,72.9,30.09,WNW,300,0.0,0.0,98,0.00,,---,0.00,VWS V14.01,2013-07-03 10:21:00,
2013-07-03 06:26:00,73.4,72.8,30.09,WNW,300,0.0,0.0,98,0.00,,---,0.00,VWS V14.01,2013-07-03 10:26:00,
2013-07-03 06:31:00,73.6,73.0,30.09,WNW,301,0.0,0.0,98,0.00,,---,0.00,VWS V14.01,2013-07-03 10:31:00,
2013-07-03 06:36:00,73.7,73.1,30.09,WNW,301,0.0,0.0,98,0.00,,---,0.00,VWS V14.01,2013-07-03 10:36:00,
2013-07-03 06:41:00,73.7,73.1,30.09,WNW,300,0.0,0.0,98,0.00,,---,0.00,VWS V14.01,2013-07-03 10:41:00,
2013-07-03 06:47:00,74.1,73.8,30.09,WNW,302,0.0,0.0,99,0.00,,---,0.00,VWS V14.01,2013-07-03 10:47:00,
2013-07-03 06:49:00,74.1,73.8,30.09,WNW,302,0.0,0.0,99,0.00,,---,0.00,VWS V14.01,2013-07-03 10:49:00,
2013-07-03 06:54:00,74.4,74.1,30.09,WNW,302,0.0,1.0,99,0.00,,---,0.00,VWS V14.01,2013-07-03 10:54:00,
2013-07-03 06:55:00,74.4,74.1,30.09,WNW,302,0.0,1.0,99,0.00,,---,0.00,VWS V14.01,2013-07-03 10:55:00,
2013-07-03 07:00:00,74.6,74.3,30.09,WNW,302,0.0,1.0,99,0.00,,---,0.00,VWS V14.01,2013-07-03 11:00:00,
2013-07-03 07:05:00,74.9,74.6,30.09,WNW,302,0.0,0.0,99,0.00,,---,0.00,VWS V14.01,2013-07-03 11:05:00,
2013-07-03 07:09:00,75.1,74.5,30.09,WNW,300,0.0,1.0,98,0.00,,---,0.00,VWS V14.01,2013-07-03 11:09:00,
2013-07-03 07:14:00,75.4,74.8,30.09,NW,325,0.0,1.0,98,0.00,,---,0.00,VWS V14.01,2013-07-03 11:14:00,
2013-07-03 07:19:00,75.6,75.0,30.09,SE,126,0.0,1.0,98,0.00,,---,0.00,VWS V14.01,2013-07-03 11:19:00,
2013-07-03 07:23:00,75.7,75.1,30.09,SE,126,0.0,1.0,98,0.01,,---,0.01,VWS V14.01,2013-07-03 11:23:00,
2013-07-03 07:25:00,75.7,75.1,30.09,SE,126,0.0,1.0,98,0.01,,---,0.01,VWS V14.01,2013-07-03 11:25:00,
2013-07-03 07:30:00,75.8,75.2,30.09,SE,125,0.0,0.0,98,0.01,,---,0.01,VWS V14.01,2013-07-03 11:30:00,
2013-07-03 07:35:00,76.0,75.4,30.10,SE,126,0.0,1.0,98,0.01,,---,0.01,VWS V14.01,2013-07-03 11:35:00,
2013-07-03 07:41:00,76.3,75.7,30.10,SE,125,0.0,1.0,98,0.01,,---,0.01,VWS V14.01,2013-07-03 11:41:00,
2013-07-03 07:45:00,76.7,76.1,30.11,SE,126,0.0,1.0,98,0.01,,---,0.01,VWS V14.01,2013-07-03 11:45:00,
2013-07-03 07:50:00,77.1,76.5,30.11,SE,133,0.0,1.0,98,0.01,,---,0.01,VWS V14.01,2013-07-03 11:50:00,
2013-07-03 07:55:00,77.0,76.1,30.11,SSE,155,0.0,1.0,97,0.01,,---,0.01,VWS V14.01,2013-07-03 11:55:00,
2013-07-03 07:59:00,76.9,76.0,30.11,SE,131,0.0,1.0,97,0.01,,---,0.01,VWS V14.01,2013-07-03 11:59:00,
2013-07-03 08:02:00,76.8,75.9,30.11,WSW,243,0.0,1.0,97,0.01,,---,0.01,VWS V14.01,2013-07-03 12:02:00,
2013-07-03 08:07:00,77.0,76.1,30.11,WSW,243,0.0,1.0,97,0.01,,---,0.01,VWS V14.01,2013-07-03 12:07:00,
2013-07-03 08:12:00,77.4,76.5,30.11,ESE,107,0.0,1.0,97,0.01,,---,0.01,VWS V14.01,2013-07-03 12:12:00,
2013-07-03 08:16:00,77.7,76.8,30.11,ESE,105,1.0,1.0,97,0.01,,---,0.01,VWS V14.01,2013-07-03 12:16:00,
2013-07-03 08:21:00,78.2,77.0,30.11,SE,130,0.0,1.0,96,0.01,,---,0.01,VWS V14.01,2013-07-03 12:21:00,
2013-07-03 08:26:00,78.9,77.3,30.11,SE,134,0.0,2.0,95,0.01,,---,0.01,VWS V14.01,2013-07-03 12:26:00,
2013-07-03 08:31:00,79.7,77.8,30.12,SSE,150,0.0,2.0,94,0.00,,---,0.01,VWS V14.01,2013-07-03 12:31:00,
2013-07-03 08:37:00,80.8,78.3,30.12,SE,129,0.0,2.0,92,0.00,,---,0.01,VWS V14.01,2013-07-03 12:37:00,
2013-07-03 08:42:00,81.7,78.5,30.12,ESE,116,1.0,2.0,90,0.00,,---,0.01,VWS V14.01,2013-07-03 12:42:00,
2013-07-03 08:46:00,82.3,78.7,30.12,SE,126,0.0,2.0,89,0.00,,---,0.01,VWS V14.01,2013-07-03 12:46:00,
2013-07-03 08:51:00,83.0,78.7,30.12,ESE,123,1.0,2.0,87,0.00,,---,0.01,VWS V14.01,2013-07-03 12:51:00,
2013-07-03 08:56:00,83.4,78.4,30.12,ESE,110,1.0,5.0,85,0.00,,---,0.01,VWS V14.01,2013-07-03 12:56:00,
2013-07-03 09:02:00,83.6,78.6,30.12,SE,129,2.0,2.0,85,0.00,,---,0.01,VWS V14.01,2013-07-03 13:02:00,
2013-07-03 09:07:00,83.8,78.4,30.12,South,172,2.0,3.0,84,0.00,,---,0.01,VWS V14.01,2013-07-03 13:07:00,
2013-07-03 09:12:00,83.9,77.8,30.12,SW,214,1.0,5.0,82,0.00,,---,0.01,VWS V14.01,2013-07-03 13:12:00,
2013-07-03 09:17:00,84.5,79.1,30.12,SE,131,0.0,5.0,84,0.00,,---,0.01,VWS V14.01,2013-07-03 13:17:00,
2013-07-03 09:22:00,84.9,78.0,30.12,ESE,117,1.0,5.0,80,0.00,,---,0.01,VWS V14.01,2013-07-03 13:22:00,
2013-07-03 09:25:00,85.1,78.2,30.12,ESE,102,1.0,5.0,80,0.00,,---,0.01,VWS V14.01,2013-07-03 13:25:00,
2013-07-03 09:26:00,85.1,78.2,30.12,SE,145,0.0,5.0,80,0.00,,---,0.01,VWS V14.01,2013-07-03 13:26:00,
2013-07-03 09:31:00,85.2,77.9,30.12,East,101,1.0,2.0,79,0.00,,---,0.01,VWS V14.01,2013-07-03 13:31:00,
2013-07-03 09:36:00,85.1,77.9,30.12,East,91,2.0,5.0,79,0.00,,---,0.01,VWS V14.01,2013-07-03 13:36:00,
2013-07-03 09:38:00,85.2,77.6,30.12,SSW,208,2.0,5.0,78,0.00,,---,0.01,VWS V14.01,2013-07-03 13:38:00,
2013-07-03 09:43:00,85.4,77.8,30.12,SSW,207,2.0,5.0,78,0.00,,---,0.01,VWS V14.01,2013-07-03 13:43:00,
2013-07-03 09:48:00,85.4,77.8,30.12,SE,136,2.0,5.0,78,0.00,,---,0.01,VWS V14.01,2013-07-03 13:48:00,
2013-07-03 09:53:00,85.6,78.0,30.12,ESE,105,1.0,8.0,78,0.00,,---,0.01,VWS V14.01,2013-07-03 13:53:00,
2013-07-03 09:59:00,85.6,77.6,30.12,SSE,167,1.0,8.0,77,0.00,,---,0.01,VWS V14.01,2013-07-03 13:59:00,
2013-07-03 10:04:00,85.4,77.8,30.12,ESE,118,1.0,4.0,78,0.00,,---,0.01,VWS V14.01,2013-07-03 14:04:00,
2013-07-03 10:06:00,85.6,78.3,30.12,ENE,68,1.0,4.0,79,0.00,,---,0.01,VWS V14.01,2013-07-03 14:06:00,
2013-07-03 10:09:00,85.9,78.6,30.12,NNE,19,2.0,4.0,79,0.00,,---,0.01,VWS V14.01,2013-07-03 14:09:00,
2013-07-03 10:14:00,86.0,78.3,30.13,ENE,72,5.0,9.0,78,0.00,,---,0.01,VWS V14.01,2013-07-03 14:14:00,
2013-07-03 10:18:00,85.9,78.2,30.12,SE,140,2.0,9.0,78,0.00,,---,0.01,VWS V14.01,2013-07-03 14:18:00,
2013-07-03 10:23:00,86.1,78.4,30.12,NE,51,3.0,9.0,78,0.00,,---,0.01,VWS V14.01,2013-07-03 14:23:00,
2013-07-03 10:28:00,86.4,78.3,30.12,SSE,158,2.0,9.0,77,0.00,,---,0.01,VWS V14.01,2013-07-03 14:28:00,
2013-07-03 10:32:00,86.6,78.9,30.12,SE,124,1.0,1.0,78,0.00,,---,0.01,VWS V14.01,2013-07-03 14:32:00,
2013-07-03 10:37:00,86.7,78.2,30.12,SSE,150,3.0,7.0,76,0.00,,---,0.01,VWS V14.01,2013-07-03 14:37:00,
2013-07-03 10:40:00,86.6,78.1,30.12,East,99,2.0,7.0,76,0.00,,---,0.01,VWS V14.01,2013-07-03 14:40:00,
2013-07-03 10:41:00,86.7,78.2,30.12,North,350,1.0,7.0,76,0.00,,---,0.01,VWS V14.01,2013-07-03 14:41:00,
2013-07-03 10:46:00,87.0,78.1,30.12,ESE,105,2.0,12.0,75,0.00,,---,0.01,VWS V14.01,2013-07-03 14:46:00,
2013-07-03 10:51:00,86.8,77.9,30.12,ESE,116,2.0,12.0,75,0.00,,---,0.01,VWS V14.01,2013-07-03 14:51:00,
2013-07-03 10:56:00,86.8,77.9,30.13,SSE,160,2.0,12.0,75,0.00,,---,0.01,VWS V14.01,2013-07-03 14:56:00,
2013-07-03 10:59:00,86.9,78.0,30.12,SE,140,5.0,12.0,75,0.00,,---,0.01,VWS V14.01,2013-07-03 14:59:00,
2013-07-03 11:03:00,86.9,77.6,30.12,East,101,2.0,6.0,74,0.00,,---,0.01,VWS V14.01,2013-07-03 15:03:00,
2013-07-03 11:04:00,87.0,78.1,30.12,East,85,2.0,6.0,75,0.00,,---,0.01,VWS V14.01,2013-07-03 15:04:00,
2013-07-03 11:09:00,87.1,77.4,30.12,SSW,194,2.0,6.0,73,0.00,,---,0.01,VWS V14.01,2013-07-03 15:09:00,
2013-07-03 11:14:00,87.2,77.9,30.12,East,86,3.0,6.0,74,0.00,,---,0.01,VWS V14.01,2013-07-03 15:14:00,
2013-07-03 11:16:00,87.2,77.9,30.12,NE,49,1.0,6.0,74,0.00,,---,0.01,VWS V14.01,2013-07-03 15:16:00,
2013-07-03 11:22:00,87.3,78.4,30.12,ENE,76,5.0,6.0,75,0.00,,---,0.01,VWS V14.01,2013-07-03 15:22:00,
2013-07-03 11:27:00,87.3,78.0,30.13,ESE,115,6.0,8.0,74,0.00,,---,0.01,VWS V14.01,2013-07-03 15:27:00,
2013-07-03 11:28:00,87.2,78.3,30.13,ENE,77,6.0,8.0,75,0.00,,---,0.01,VWS V14.01,2013-07-03 15:28:00,
2013-07-03 11:33:00,87.3,78.0,30.13,East,92,2.0,4.0,74,0.00,,---,0.01,VWS V14.01,2013-07-03 15:33:00,
2013-07-03 11:38:00,87.5,77.4,30.13,East,101,3.0,7.0,72,0.00,,---,0.01,VWS V14.01,2013-07-03 15:38:00,
2013-07-03 11:40:00,87.5,77.4,30.13,ENE,60,2.0,7.0,72,0.00,,---,0.01,VWS V14.01,2013-07-03 15:40:00,
2013-07-03 11:46:00,87.7,78.0,30.13,SE,135,4.0,9.0,73,0.00,,---,0.01,VWS V14.01,2013-07-03 15:46:00,
2013-07-03 11:51:00,87.5,78.2,30.13,NE,34,8.0,9.0,74,0.00,,---,0.01,VWS V14.01,2013-07-03 15:51:00,
2013-07-03 11:52:00,87.5,78.2,30.13,NE,52,1.0,11.0,74,0.00,,---,0.01,VWS V14.01,2013-07-03 15:52:00,
2013-07-03 11:53:00,87.4,77.7,30.13,SSE,166,3.0,11.0,73,0.00,,---,0.01,VWS V14.01,2013-07-03 15:53:00,
2013-07-03 11:58:00,87.8,78.1,30.13,SE,133,1.0,11.0,73,0.00,,---,0.01,VWS V14.01,2013-07-03 15:58:00,
2013-07-03 12:03:00,87.4,76.8,30.13,SE,124,2.0,5.0,71,0.00,,---,0.01,VWS V14.01,2013-07-03 16:03:00,
2013-07-03 12:08:00,87.5,77.8,30.13,SW,229,0.0,5.0,73,0.00,,---,0.01,VWS V14.01,2013-07-03 16:08:00,
2013-07-03 12:13:00,87.7,77.6,30.12,SW,219,2.0,6.0,72,0.00,,---,0.01,VWS V14.01,2013-07-03 16:13:00,
2013-07-03 12:18:00,87.8,77.7,30.12,ESE,122,3.0,7.0,72,0.00,,---,0.01,VWS V14.01,2013-07-03 16:18:00,
2013-07-03 12:23:00,87.8,77.7,30.12,NNE,18,3.0,7.0,72,0.00,,---,0.01,VWS V14.01,2013-07-03 16:23:00,
2013-07-03 12:28:00,87.7,78.0,30.12,SE,143,2.0,7.0,73,0.00,,---,0.01,VWS V14.01,2013-07-03 16:28:00,
2013-07-03 12:33:00,87.8,77.2,30.12,ENE,78,3.0,6.0,71,0.00,,---,0.01,VWS V14.01,2013-07-03 16:33:00,
2013-07-03 12:38:00,87.9,76.9,30.12,WNW,286,9.0,9.0,70,0.00,,---,0.01,VWS V14.01,2013-07-03 16:38:00,
2013-07-03 12:43:00,87.6,76.6,30.12,East,95,2.0,9.0,70,0.00,,---,0.01,VWS V14.01,2013-07-03 16:43:00,
2013-07-03 12:49:00,87.7,77.1,30.12,East,82,2.0,12.0,71,0.00,,---,0.01,VWS V14.01,2013-07-03 16:49:00,
2013-07-03 12:54:00,87.9,77.3,30.11,ESE,119,6.0,12.0,71,0.00,,---,0.01,VWS V14.01,2013-07-03 16:54:00,
2013-07-03 12:59:00,87.6,77.5,30.12,SSE,155,4.0,12.0,72,0.00,,---,0.01,VWS V14.01,2013-07-03 16:59:00,
2013-07-03 13:05:00,87.9,77.3,30.11,ESE,116,1.0,12.0,71,0.00,,---,0.01,VWS V14.01,2013-07-03 17:05:00,
2013-07-03 13:10:00,87.9,77.8,30.12,ENE,75,3.0,12.0,72,0.00,,---,0.01,VWS V14.01,2013-07-03 17:10:00,
2013-07-03 13:15:00,87.6,77.9,30.11,East,85,4.0,12.0,73,0.00,,---,0.01,VWS V14.01,2013-07-03 17:15:00,
2013-07-03 13:20:00,87.3,77.6,30.12,SE,131,1.0,12.0,73,0.00,,---,0.01,VWS V14.01,2013-07-03 17:20:00,
2013-07-03 13:25:00,87.3,77.6,30.11,SE,135,1.0,12.0,73,0.00,,---,0.01,VWS V14.01,2013-07-03 17:25:00,
2013-07-03 13:30:00,87.0,77.3,30.11,ESE,105,4.0,5.0,73,0.00,,---,0.01,VWS V14.01,2013-07-03 17:30:00,
2013-07-03 13:35:00,87.0,77.3,30.11,SSW,203,2.0,5.0,73,0.00,,---,0.01,VWS V14.01,2013-07-03 17:35:00,
2013-07-03 13:40:00,86.9,77.6,30.11,East,86,1.0,9.0,74,0.00,,---,0.01,VWS V14.01,2013-07-03 17:40:00,
2013-07-03 13:45:00,87.1,77.0,30.11,ESE,102,3.0,10.0,72,0.00,,---,0.01,VWS V14.01,2013-07-03 17:45:00,
2013-07-03 13:50:00,87.3,77.2,30.10,South,179,2.0,10.0,72,0.00,,---,0.01,VWS V14.01,2013-07-03 17:50:00,
2013-07-03 13:56:00,87.6,78.3,30.10,East,92,3.0,10.0,74,0.00,,---,0.01,VWS V14.01,2013-07-03 17:56:00,
2013-07-03 14:01:00,87.4,77.3,30.10,ESE,122,5.0,7.0,72,0.00,,---,0.01,VWS V14.01,2013-07-03 18:01:00,
2013-07-03 14:06:00,87.0,77.7,30.10,SSE,148,2.0,7.0,74,0.00,,---,0.01,VWS V14.01,2013-07-03 18:06:00,
2013-07-03 14:11:00,86.5,76.8,30.10,East,101,3.0,10.0,73,0.00,,---,0.01,VWS V14.01,2013-07-03 18:11:00,
2013-07-03 14:17:00,85.9,75.8,30.09,SE,124,1.0,10.0,72,0.00,,---,0.01,VWS V14.01,2013-07-03 18:17:00,
2013-07-03 14:22:00,85.8,77.4,30.09,East,98,2.0,10.0,76,0.00,,---,0.01,VWS V14.01,2013-07-03 18:22:00,
2013-07-03 14:27:00,85.5,76.7,30.09,SSE,160,2.0,10.0,75,0.00,,---,0.01,VWS V14.01,2013-07-03 18:27:00,
2013-07-03 14:32:00,85.6,77.2,30.10,SSE,164,3.0,4.0,76,0.00,,---,0.01,VWS V14.01,2013-07-03 18:32:00,
2013-07-03 14:39:00,85.9,77.9,30.10,NNE,33,2.0,7.0,77,0.00,,---,0.01,VWS V14.01,2013-07-03 18:39:00,
2013-07-03 14:44:00,85.8,77.8,30.09,SE,143,1.0,10.0,77,0.00,,---,0.01,VWS V14.01,2013-07-03 18:44:00,
2013-07-03 14:49:00,85.7,77.3,30.09,NE,56,4.0,10.0,76,0.00,,---,0.01,VWS V14.01,2013-07-03 18:49:00,
2013-07-03 14:54:00,85.4,77.4,30.09,East,91,1.0,10.0,77,0.00,,---,0.01,VWS V14.01,2013-07-03 18:54:00,
2013-07-03 14:59:00,85.3,76.9,30.09,SE,146,4.0,10.0,76,0.00,,---,0.01,VWS V14.01,2013-07-03 18:59:00,
2013-07-03 15:04:00,85.2,77.2,30.09,ESE,122,1.0,6.0,77,0.00,,---,0.01,VWS V14.01,2013-07-03 19:04:00,
2013-07-03 15:09:00,85.1,77.1,30.09,SE,143,0.0,6.0,77,0.00,,---,0.01,VWS V14.01,2013-07-03 19:09:00,
2013-07-03 15:14:00,85.3,76.9,30.08,SE,136,1.0,6.0,76,0.00,,---,0.01,VWS V14.01,2013-07-03 19:14:00,
2013-07-03 15:19:00,85.0,75.4,30.08,SSE,160,2.0,8.0,73,0.00,,---,0.01,VWS V14.01,2013-07-03 19:19:00,
2013-07-03 15:24:00,84.6,75.0,30.08,NNE,32,2.0,8.0,73,0.00,,---,0.01,VWS V14.01,2013-07-03 19:24:00,
2013-07-03 15:29:00,84.5,75.3,30.08,ENE,57,4.0,13.0,74,0.00,,---,0.01,VWS V14.01,2013-07-03 19:29:00,
2013-07-03 15:34:00,84.5,75.3,30.08,SE,129,1.0,3.0,74,0.00,,---,0.01,VWS V14.01,2013-07-03 19:34:00,
2013-07-03 15:40:00,84.5,75.7,30.08,ENE,78,1.0,6.0,75,0.00,,---,0.01,VWS V14.01,2013-07-03 19:40:00,
2013-07-03 15:45:00,84.7,75.9,30.08,SE,128,2.0,6.0,75,0.00,,---,0.01,VWS V14.01,2013-07-03 19:45:00,
2013-07-03 15:50:00,84.7,76.3,30.08,SSW,203,1.0,7.0,76,0.00,,---,0.01,VWS V14.01,2013-07-03 19:50:00,
2013-07-03 15:55:00,84.8,76.8,30.08,SE,133,2.0,7.0,77,0.00,,---,0.01,VWS V14.01,2013-07-03 19:55:00,
2013-07-03 16:00:00,84.8,76.4,30.08,SE,124,2.0,3.0,76,0.00,,---,0.01,VWS V14.01,2013-07-03 20:00:00,
2013-07-03 16:05:00,84.8,76.8,30.08,South,169,0.0,4.0,77,0.00,,---,0.01,VWS V14.01,2013-07-03 20:05:00,
2013-07-03 16:11:00,84.8,76.8,30.08,WSW,257,1.0,4.0,77,0.00,,---,0.01,VWS V14.01,2013-07-03 20:11:00,
2013-07-03 16:16:00,84.7,76.7,30.08,SE,126,2.0,5.0,77,0.00,,---,0.01,VWS V14.01,2013-07-03 20:16:00,
2013-07-03 16:21:00,84.6,77.0,30.07,ESE,110,2.0,5.0,78,0.00,,---,0.01,VWS V14.01,2013-07-03 20:21:00,
2013-07-03 16:27:00,84.5,76.5,30.07,ESE,112,3.0,7.0,77,0.00,,---,0.01,VWS V14.01,2013-07-03 20:27:00,
2013-07-03 16:32:00,84.4,76.4,30.07,South,170,4.0,7.0,77,0.00,,---,0.01,VWS V14.01,2013-07-03 20:32:00,
2013-07-03 16:37:00,84.4,76.8,30.07,SSW,201,1.0,7.0,78,0.00,,---,0.01,VWS V14.01,2013-07-03 20:37:00,
2013-07-03 16:42:00,84.5,76.9,30.08,SW,231,3.0,10.0,78,0.00,,---,0.01,VWS V14.01,2013-07-03 20:42:00,
2013-07-03 16:47:00,84.5,77.3,30.07,ESE,113,0.0,10.0,79,0.00,,---,0.01,VWS V14.01,2013-07-03 20:47:00,
2013-07-03 16:53:00,84.5,76.9,30.07,SE,124,1.0,10.0,78,0.00,,---,0.01,VWS V14.01,2013-07-03 20:53:00,
2013-07-03 16:58:00,84.5,76.9,30.07,South,174,3.0,5.0,78,0.00,,---,0.01,VWS V14.01,2013-07-03 20:58:00,
2013-07-03 17:04:00,84.6,77.0,30.07,South,183,3.0,6.0,78,0.00,,---,0.01,VWS V14.01,2013-07-03 21:04:00,
2013-07-03 17:09:00,84.8,77.2,30.07,ESE,116,1.0,6.0,78,0.00,,---,0.01,VWS V14.01,2013-07-03 21:09:00,
2013-07-03 17:14:00,85.0,77.0,30.07,WNW,293,2.0,6.0,77,0.00,,---,0.01,VWS V14.01,2013-07-03 21:14:00,
2013-07-03 17:19:00,84.8,76.8,30.07,SSW,203,2.0,9.0,77,0.00,,---,0.01,VWS V14.01,2013-07-03 21:19:00,
2013-07-03 17:25:00,84.8,77.2,30.07,ESE,119,4.0,9.0,78,0.00,,---,0.01,VWS V14.01,2013-07-03 21:25:00,
2013-07-03 17:30:00,84.7,76.7,30.07,SE,130,2.0,2.0,77,0.00,,---,0.01,VWS V14.01,2013-07-03 21:30:00,
2013-07-03 17:35:00,84.7,76.3,30.08,SE,145,2.0,5.0,76,0.00,,---,0.01,VWS V14.01,2013-07-03 21:35:00,
2013-07-03 17:40:00,84.9,76.1,30.08,East,98,2.0,5.0,75,0.00,,---,0.01,VWS V14.01,2013-07-03 21:40:00,
2013-07-03 17:46:00,85.0,76.6,30.08,SSE,155,2.0,5.0,76,0.00,,---,0.01,VWS V14.01,2013-07-03 21:46:00,
2013-07-03 17:51:00,85.0,77.0,30.08,SW,217,1.0,5.0,77,0.00,,---,0.01,VWS V14.01,2013-07-03 21:51:00,
2013-07-03 17:56:00,85.1,76.7,30.08,SSE,155,2.0,9.0,76,0.00,,---,0.01,VWS V14.01,2013-07-03 21:56:00,
2013-07-03 18:01:00,85.0,77.0,30.08,NNE,30,3.0,5.0,77,0.00,,---,0.01,VWS V14.01,2013-07-03 22:01:00,
2013-07-03 18:06:00,84.7,77.1,30.08,WSW,250,1.0,9.0,78,0.00,,---,0.01,VWS V14.01,2013-07-03 22:06:00,
2013-07-03 18:11:00,84.6,77.0,30.08,NNE,33,4.0,9.0,78,0.00,,---,0.01,VWS V14.01,2013-07-03 22:11:00,
2013-07-03 18:17:00,84.4,76.8,30.08,West,271,1.0,9.0,78,0.00,,---,0.01,VWS V14.01,2013-07-03 22:17:00,
2013-07-03 18:22:00,84.3,76.7,30.09,NE,41,4.0,9.0,78,0.00,,---,0.01,VWS V14.01,2013-07-03 22:22:00,
2013-07-03 18:27:00,84.1,76.5,30.09,SE,136,1.0,9.0,78,0.00,,---,0.01,VWS V14.01,2013-07-03 22:27:00,
2013-07-03 18:32:00,83.9,76.3,30.08,ENE,58,3.0,6.0,78,0.00,,---,0.01,VWS V14.01,2013-07-03 22:32:00,
2013-07-03 18:38:00,83.7,76.1,30.08,ESE,122,2.0,6.0,78,0.00,,---,0.01,VWS V14.01,2013-07-03 22:38:00,
2013-07-03 18:43:00,83.7,76.5,30.08,South,188,0.0,6.0,79,0.00,,---,0.01,VWS V14.01,2013-07-03 22:43:00,
2013-07-03 18:48:00,83.7,76.9,30.08,NE,50,0.0,6.0,80,0.00,,---,0.01,VWS V14.01,2013-07-03 22:48:00,
2013-07-03 18:54:00,83.6,76.8,30.08,SSE,162,2.0,6.0,80,0.00,,---,0.01,VWS V14.01,2013-07-03 22:54:00,
2013-07-03 18:59:00,83.5,76.7,30.08,ESE,112,0.0,6.0,80,0.00,,---,0.01,VWS V14.01,2013-07-03 22:59:00,
2013-07-03 19:04:00,83.3,76.5,30.09,SE,143,0.0,2.0,80,0.00,,---,0.01,VWS V14.01,2013-07-03 23:04:00,
2013-07-03 19:09:00,83.3,76.5,30.09,SE,141,1.0,3.0,80,0.00,,---,0.01,VWS V14.01,2013-07-03 23:09:00,
2013-07-03 19:14:00,83.1,76.3,30.09,SSE,167,1.0,3.0,80,0.00,,---,0.01,VWS V14.01,2013-07-03 23:14:00,
2013-07-03 19:20:00,83.0,76.2,30.09,ESE,116,0.0,4.0,80,0.00,,---,0.01,VWS V14.01,2013-07-03 23:20:00,
2013-07-03 19:25:00,83.0,76.2,30.09,ENE,76,1.0,4.0,80,0.00,,---,0.01,VWS V14.01,2013-07-03 23:25:00,
2013-07-03 19:31:00,82.8,76.0,30.10,ESE,117,1.0,3.0,80,0.00,,---,0.01,VWS V14.01,2013-07-03 23:31:00,
2013-07-03 19:36:00,82.8,76.4,30.10,ESE,103,1.0,3.0,81,0.00,,---,0.01,VWS V14.01,2013-07-03 23:36:00,
2013-07-03 19:41:00,82.7,76.3,30.10,SE,134,1.0,3.0,81,0.00,,---,0.01,VWS V14.01,2013-07-03 23:41:00,
2013-07-03 19:47:00,82.6,76.6,30.10,SE,130,0.0,3.0,82,0.00,,---,0.01,VWS V14.01,2013-07-03 23:47:00,
2013-07-03 19:52:00,82.5,76.4,30.11,WNW,290,2.0,7.0,82,0.00,,---,0.01,VWS V14.01,2013-07-03 23:52:00,
2013-07-03 19:57:00,82.2,75.4,30.11,SSW,207,3.0,9.0,80,0.00,,---,0.01,VWS V14.01,2013-07-03 23:57:00,
2013-07-03 20:02:00,80.7,74.3,30.11,SE,142,1.0,6.0,81,0.00,,---,0.01,VWS V14.01,2013-07-04 00:02:00,
2013-07-03 20:07:00,79.4,73.4,30.11,SE,129,1.0,6.0,82,0.00,,---,0.01,VWS V14.01,2013-07-04 00:07:00,
2013-07-03 20:12:00,78.6,73.0,30.11,SSW,192,1.0,6.0,83,0.00,,---,0.01,VWS V14.01,2013-07-04 00:12:00,
2013-07-03 20:17:00,78.1,72.5,30.11,SW,217,1.0,6.0,83,0.00,,---,0.01,VWS V14.01,2013-07-04 00:17:00,
2013-07-03 20:23:00,77.7,72.5,30.11,SE,143,0.0,6.0,84,0.00,,---,0.01,VWS V14.01,2013-07-04 00:23:00,
2013-07-03 20:28:00,77.4,72.9,30.11,South,186,1.0,6.0,86,0.00,,---,0.01,VWS V14.01,2013-07-04 00:28:00,
2013-07-03 20:33:00,77.2,73.0,30.10,SSW,211,0.0,3.0,87,0.00,,---,0.01,VWS V14.01,2013-07-04 00:33:00,
2013-07-03 20:38:00,77.0,72.8,30.11,SE,146,0.0,3.0,87,0.00,,---,0.01,VWS V14.01,2013-07-04 00:38:00,
2013-07-03 20:44:00,76.8,72.6,30.11,SSE,162,0.0,3.0,87,0.00,,---,0.01,VWS V14.01,2013-07-04 00:44:00,
2013-07-03 20:49:00,76.7,72.9,30.11,SSE,160,0.0,3.0,88,0.00,,---,0.01,VWS V14.01,2013-07-04 00:49:00,
2013-07-03 20:54:00,76.6,72.8,30.11,SSE,160,0.0,3.0,88,0.00,,---,0.01,VWS V14.01,2013-07-04 00:54:00,
2013-07-03 20:59:00,76.5,73.0,30.11,SSE,160,0.0,3.0,89,0.00,,---,0.01,VWS V14.01,2013-07-04 00:59:00,
2013-07-03 21:04:00,76.6,73.1,30.12,SSE,156,0.0,0.0,89,0.00,,---,0.01,VWS V14.01,2013-07-04 01:04:00,
2013-07-03 21:09:00,76.6,73.4,30.12,SW,214,0.0,1.0,90,0.00,,---,0.01,VWS V14.01,2013-07-04 01:09:00,
2013-07-03 21:14:00,76.7,73.6,30.12,SW,236,0.0,1.0,90,0.00,,---,0.01,VWS V14.01,2013-07-04 01:14:00,
2013-07-03 21:19:00,76.8,73.7,30.12,WSW,238,0.0,1.0,90,0.00,,---,0.01,VWS V14.01,2013-07-04 01:19:00,
2013-07-03 21:24:00,76.8,73.7,30.12,WSW,238,0.0,1.0,90,0.00,,---,0.01,VWS V14.01,2013-07-04 01:24:00,
2013-07-03 21:30:00,76.7,73.6,30.12,WSW,238,0.0,1.0,90,0.00,,---,0.01,VWS V14.01,2013-07-04 01:30:00,
2013-07-03 21:35:00,76.6,73.4,30.12,WSW,238,0.0,0.0,90,0.00,,---,0.01,VWS V14.01,2013-07-04 01:35:00,
2013-07-03 21:40:00,76.5,73.3,30.12,WSW,238,0.0,0.0,90,0.00,,---,0.01,VWS V14.01,2013-07-04 01:40:00,
2013-07-03 21:45:00,76.5,73.7,30.12,WSW,238,0.0,0.0,91,0.00,,---,0.01,VWS V14.01,2013-07-04 01:45:00,
2013-07-03 21:50:00,76.4,73.6,30.12,WSW,238,0.0,0.0,91,0.00,,---,0.01,VWS V14.01,2013-07-04 01:50:00,
2013-07-03 21:55:00,76.4,73.6,30.13,WSW,242,0.0,1.0,91,0.00,,---,0.01,VWS V14.01,2013-07-04 01:55:00,
2013-07-03 22:00:00,76.3,73.5,30.13,WSW,242,0.0,0.0,91,0.00,,---,0.01,VWS V14.01,2013-07-04 02:00:00,
2013-07-03 22:05:00,76.2,73.7,30.13,WSW,243,0.0,0.0,92,0.00,,---,0.01,VWS V14.01,2013-07-04 02:05:00,
2013-07-03 22:11:00,76.3,73.8,30.13,WSW,243,0.0,0.0,92,0.00,,---,0.01,VWS V14.01,2013-07-04 02:11:00,
2013-07-03 22:16:00,76.4,73.9,30.13,SW,235,0.0,1.0,92,0.00,,---,0.01,VWS V14.01,2013-07-04 02:16:00,
2013-07-03 22:21:00,76.5,74.0,30.13,WSW,238,0.0,1.0,92,0.00,,---,0.01,VWS V14.01,2013-07-04 02:21:00,
2013-07-03 22:26:00,76.5,73.7,30.13,WSW,238,0.0,1.0,91,0.00,,---,0.01,VWS V14.01,2013-07-04 02:26:00,
2013-07-03 22:31:00,76.6,73.8,30.13,ESE,105,0.0,0.0,91,0.00,,---,0.01,VWS V14.01,2013-07-04 02:31:00,
2013-07-03 22:36:00,76.6,73.8,30.14,ESE,104,0.0,0.0,91,0.00,,---,0.01,VWS V14.01,2013-07-04 02:36:00,
2013-07-03 22:41:00,76.6,73.8,30.14,ESE,105,0.0,1.0,91,0.00,,---,0.01,VWS V14.01,2013-07-04 02:41:00,
2013-07-03 22:46:00,76.6,73.8,30.14,West,266,0.0,1.0,91,0.00,,---,0.01,VWS V14.01,2013-07-04 02:46:00,
2013-07-03 22:52:00,76.7,73.6,30.14,WSW,254,0.0,1.0,90,0.00,,---,0.01,VWS V14.01,2013-07-04 02:52:00,
2013-07-03 22:57:00,76.8,73.7,30.15,WSW,255,0.0,1.0,90,0.00,,---,0.01,VWS V14.01,2013-07-04 02:57:00,
2013-07-03 23:02:00,76.8,73.7,30.15,SW,233,0.0,1.0,90,0.00,,---,0.01,VWS V14.01,2013-07-04 03:02:00,
2013-07-03 23:07:00,77.0,73.8,30.15,SSW,207,0.0,1.0,90,0.00,,---,0.01,VWS V14.01,2013-07-04 03:07:00,
2013-07-03 23:12:00,77.2,74.0,30.15,SW,228,0.0,1.0,90,0.00,,---,0.01,VWS V14.01,2013-07-04 03:12:00,
2013-07-03 23:17:00,77.5,74.0,30.15,West,264,0.0,1.0,89,0.00,,---,0.01,VWS V14.01,2013-07-04 03:17:00,
2013-07-03 23:23:00,77.6,74.1,30.15,WNW,290,0.0,1.0,89,0.00,,---,0.01,VWS V14.01,2013-07-04 03:23:00,
2013-07-03 23:28:00,77.4,73.9,30.15,WNW,290,0.0,1.0,89,0.00,,---,0.01,VWS V14.01,2013-07-04 03:28:00,
2013-07-03 23:33:00,77.2,73.7,30.15,WNW,290,0.0,0.0,89,0.00,,---,0.01,VWS V14.01,2013-07-04 03:33:00,
2013-07-03 23:39:00,76.9,73.8,30.15,WNW,289,0.0,0.0,90,0.00,,---,0.01,VWS V14.01,2013-07-04 03:39:00,
2013-07-03 23:44:00,76.7,73.6,30.15,WNW,288,0.0,0.0,90,0.00,,---,0.01,VWS V14.01,2013-07-04 03:44:00,
2013-07-03 23:50:00,76.4,73.6,30.15,WNW,288,0.0,0.0,91,0.00,,---,0.01,VWS V14.01,2013-07-04 03:50:00,
2013-07-03 23:55:00,76.2,73.4,30.15,WNW,289,0.0,0.0,91,0.00,,---,0.01,VWS V14.01,2013-07-04 03:55:00,